Volver al catálogo

STARLINK-5699

ActivoComunicacionesVLEO
NORAD 55449·PAYLOAD·🇺🇸 United States

Lanzado Feb 2, 2023 desde Cape Canaveral Space Force Station

Loading…

Próximos Pases (próximas 24 horas)

TLE

ActualizadoSource: CelesTrak SupGP

Época: Sep 15, 2026, 02:45 UTC

1 55449C 23015A   26258.11506944  .00023486  00000+0  85064-3 0  2587
2 55449  43.0040 339.2642 0001817 287.6904 249.5820 15.27567517    19

Sigue STARLINK-5699 en tiempo real con AllMySat

Download on the App Store